This is the latest recevied weather packets stored in our database for station/object SQ3RAX-13. If no packets are shown the sender has not sent any weather packets the latest 10 day(s).
| Time | Temp. | Humidity | Pressure | Rain* | Wind** | Luminosity | Snow |
|---|---|---|---|---|---|---|---|
| 1777616699 | 11.67° C | 62% | 1028 hPa | 0 mm | - | - | - |
| 1777616099 | 10.56° C | 66% | 1028 hPa | 0 mm | - | - | - |
| 1777615499 | 10.56° C | 66% | 1028 hPa | 0 mm | - | - | - |
| 1777614899 | 10.56° C | 66% | 1028 hPa | 0 mm | - | - | - |
| 1777614299 | 10° C | 69% | 1028 hPa | 0 mm | - | - | - |
| 1777613699 | 10° C | 69% | 1028 hPa | 0 mm | - | - | - |
| 1777613099 | 7.78° C | 74% | 1027 hPa | 0 mm | - | - | - |
| 1777612499 | 7.78° C | 74% | 1027 hPa | 0 mm | - | - | - |
| 1777611899 | 7.22° C | 78% | 1028 hPa | 0 mm | - | - | - |
| 1777611299 | 7.22° C | 78% | 1028 hPa | 0 mm | - | - | - |
| 1777610699 | 7.22° C | 78% | 1028 hPa | 0 mm | - | - | - |
| 1777610099 | 6.67° C | 79% | 1028 hPa | 0 mm | - | - | - |
| 1777609499 | 5° C | 80% | 1027 hPa | 0 mm | - | - | - |
| 1777608899 | 5° C | 82% | 1027 hPa | 0 mm | - | - | - |
| 1777608299 | 5° C | 83% | 1028 hPa | 0 mm | - | - | - |
| 1777607699 | 5° C | 82% | 1028 hPa | 0 mm | - | - | - |
| 1777607099 | 5° C | 82% | 1028 hPa | 0 mm | - | - | - |
| 1777606499 | 4.44° C | 81% | 1028 hPa | 0 mm | - | - | - |
| 1777605899 | 4.44° C | 81% | 1028 hPa | 0 mm | - | - | - |
| 1777605299 | 5° C | 80% | 1028 hPa | 0 mm | - | - | - |
| 1777604699 | 4.44° C | 81% | 1028 hPa | 0 mm | - | - | - |
| 1777604099 | 4.44° C | 81% | 1028 hPa | 0 mm | - | - | - |
| 1777603499 | 4.44° C | 80% | 1028 hPa | 0 mm | - | - | - |
| 1777602900 | 5° C | 79% | 1028 hPa | 0 mm | - | - | - |
| 1777602300 | 5° C | 77% | 1028 hPa | 0 mm | - | - | - |
* Rain latest hour (hover to see other rain measurements)
** Current wind speed in m/s (hover to see current wind gust speed)